This demonstration page uses our WeatherBlox Daily Observations layout. Learn more.

Left ArrowRight Arrow

44.89941, -97.11507

Hourly Observations for July 4, 2022

Temp ( °F °C ) Dew Point ( °F °C ) Humidity (%) Winds ( mph kmh ) Pressure ( in mb ) Visibility ( mi km ) Precip ( " mm )
12:53 am 00:53 Clear 73 22.8 67 19.4 81 81 SE 6 9 29.84 1011 10 16 0.00 0.00
1:53 am 01:53 Partly Cloudy 73 22.8 68 20 84 84 ESE 7 11 29.84 1011 10 16 0.00 0.00
2:44 am 02:44 Mostly Cloudy 73 22.8 68 20 84 84 SE 9 15 29.78 1008 10 16 0.00 0.00
2:53 am 02:53 Mostly Cloudy 73 22.8 68 20 84 84 SE 10 17 29.80 1009 10 16 0.00 0.00
3:19 am 03:19 Mostly Cloudy 73 22.8 68 20 84 84 SE 10 17 29.78 1008 10 16 0.00 0.00
3:53 am 03:53 Cloudy with Light Rain 73 22.8 69 20.6 87 87 SSE 13 20 29.80 1009 10 16 0.01 0.25
4:27 am 04:27 Cloudy with Nearby Thunderstorms 73 22.8 70 21.1 90 90 SSE 8 13 29.78 1008 9 14 0.01 0.25
4:41 am 04:41 Cloudy with Strong Thunderstorms 67 19.4 65 18.3 93 93 N 16 26 29.79 1009 3 5 0.12 3.05
4:48 am 04:48 Cloudy with Strong Thunderstorms 66 19 64 18 94 94 NNW 15 24 29.80 1009 3 5 0.16 4.06
4:53 am 04:53 Cloudy with Thunderstorms 67 19.4 65 18.3 93 93 N 8 13 29.82 1010 4 6 0.17 4.32
5:10 am 05:10 Cloudy with Nearby Thunderstorms 66 18.9 65 18.3 96 96 N 8 13 29.80 1009 6 10 0.05 1.27
5:36 am 05:36 Cloudy with Light Rain 66 18.9 66 18.9 100 100 NE 9 15 29.78 1009 10 16 0.09 2.29
5:53 am 05:53 Mostly Cloudy 66 18.9 65 18.3 96 96 NE 13 20 29.79 1009 10 16 0.09 2.29
6:53 am 06:53 Mostly Cloudy with Light Rain 67 19.4 65 18.3 93 93 SE 10 17 29.78 1009 10 16 0.01 0.25
7:51 am 07:51 Mostly Cloudy with Light Rain 68 20 66 19 94 94 WNW 3 6 29.76 1008 10 16 0.00 0.00
7:53 am 07:53 Mostly Cloudy with Light Rain 68 20 67 19.4 96 96 Calm 29.78 1009 10 16 0.00 0.00
8:00 am 08:00 Mostly Cloudy with Light Rain 69 20.6 66 18.9 90 90 Calm 29.74 1007 10 16 0.00 0.00
8:53 am 08:53 Partly Cloudy 71 21.7 67 19.4 87 87 Calm 29.76 1008 10 16 0.00 0.00
9:53 am 09:53 Sunny 73 22.8 68 20 84 84 S 5 7 29.75 1008 10 16 0.00 0.00
10:53 am 10:53 Mostly Sunny 77 25 70 21.1 79 79 SSW 6 9 29.76 1008 10 16 0.00 0.00
11:53 am 11:53 Mostly Sunny 80 26.7 71 21.7 74 74 S 8 13 29.77 1008 10 16 0.00 0.00
12:53 pm 12:53 Mostly Sunny 80 26.7 69 20.6 69 69 VRB 3 6 29.78 1008 10 16 0.00 0.00
1:51 pm 13:51 Cloudy 81 27 70 21 70 70 W 5 7 29.73 1007 10 16 0.00 0.00
1:53 pm 13:53 Cloudy 81 27.2 69 20.6 67 67 W 5 7 29.79 1009 10 16 0.00 0.00
2:01 pm 14:01 Cloudy 81 27.2 69 20.6 67 67 W 5 7 29.73 1007 10 16 0.00 0.00
2:53 pm 14:53 Mostly Cloudy 82 27.8 70 21.1 67 67 WSW 8 13 29.79 1009 10 16 0.00 0.00
3:53 pm 15:53 Mostly Cloudy 83 28.3 70 21.1 65 65 W 8 13 29.79 1009 10 16 0.00 0.00
4:53 pm 16:53 Sunny 85 29.4 70 21.1 61 61 NW 7 11 29.79 1009 10 16 0.00 0.00
5:53 pm 17:53 Sunny 85 29.4 70 21.1 61 61 NW 8 13 29.80 1009 10 16 0.00 0.00
6:53 pm 18:53 Sunny 84 28.9 69 20.6 61 61 NW 6 9 29.80 1009 10 16 0.00 0.00
7:53 pm 19:53 Sunny 83 28.3 69 20.6 63 63 NNE 5 7 29.80 1009 10 16 0.00 0.00
8:53 pm 20:53 Sunny 78 25.6 69 20.6 74 74 NNE 5 7 29.81 1009 10 16 0.00 0.00
9:53 pm 21:53 Clear 75 23.9 69 20.6 82 82 NNW 3 6 29.81 1010 10 16 0.00 0.00
10:53 pm 22:53 Clear 74 23.3 69 20.6 85 85 NNW 3 6 29.83 1010 10 16 0.00 0.00
11:53 pm 23:53 Partly Cloudy 73 22.8 69 20.6 87 87 Calm 29.83 1010 10 16 0.00 0.00

Powered by AerisWeather